OBJECT D, 44882

Orbit data source: Space-Track

You're viewing an Uncataloged Satellite

Recently launched and/or uncataloged satellites may have evolving metadata. Metadata may include but not limited to: Owner, Maufacturer, Bus, Motor, and Mission.

OBJECT D, 44882 is a satellite in SSO that was launched on Fri, 20 Dec 2019 UTC via a CHANG ZHENG 4B launch vehicle from the Taiyaun Space Center, China (TSC). Unknown objects in Earth's orbit typically refer to objects detected orbiting the Earth but have not yet been identified or cataloged. These objects could be anything from previously untracked satellites, spent rocket stages, debris from satellite collisions, or even natural meteoroids temporarily captured by Earth's gravity.

Loading next visibility...
Identifier
44882, 2019-093D
Orbit
SSO
Country
Flag of TBDTBD
Related business
None
Manufacturer
Shanghai ASES
Mission
Operational Commercial Communications
Bus & Motor
STARLIGHTB, Unknown motor
Mass
40 kg wet, ~40 kg dry
Launch date (UTC)
2019-12-20 (6 years ago)
Launch vehicle
CHANG ZHENG 4B
Launch site
Taiyaun Space Center, China (TSC)
Object type
Unknown
Shape & HBR
Box, Unknown HBR
Radar Cross Section
0.195 m², Large (>1 m²)

Expand to show TLE details & history
Last TLE update: 14 hours ago

TLE from 14 hours ago
0 OBJECT D
1 44882U 19093D   25261.29668620  .00005825  00000-0  46955-3 0  9995
2 44882  97.8136 349.2869 0014799 223.2665 136.7397 15.00212618311770
Epoch: 2025-09-18T07:07Z
TLE epoch observation values (Epoch: 2025-09-18T07:07:13.687Z)
Latitude
-0.00002°
Longitude
-114.98044°
Altitude
576.785 km
Speed
7.568 km/s
True Right ascension
23h 17m 08s
True Declination
0° 00' 00"
Sunlit
Object was in full shadow at epoch
Visualization orbit readout
Latitude
Unknown
Longitude
Unknown
Altitude
Unknown
Speed
Unknown
Apparent Right ascension
Unknown
Apparent Declination
Unknown
Sunlit
N/A
Visualization observer readout
Local Sidereal Time
13:45:03
Azimuth
Unknown
Elevation
Unknown
Doppler factor
Unknown
Orbital elements
Apogee altitude
573.523 km
Perigee altitude
552.978 km
Semi-major axis
6,941.387 km
Eccentricity
0.00148
Inclination
97.8136°
RAAN
349.2869°
Arg. of periapsis
223.2665°
True anomaly
136.85576°
Mean anomaly
136.7397°
Eccentric anomaly
136.79775°
Mean motion
3.75296 °/min
Orbital period
95.92 mins
BSTAR
0.00046955
Loading maneuver chart data...
Computing Atmospheric mass density...
Loading historical data...
Loading historical data...
Loading historical data...
Loading historical data...
Loading historical data...
Loading historical data...
Loading historical data...

Documentation

Showing up to 5 results
|